Notices

What's New in latest Release from April 7th, 2021:

- Updated Glossary, including Speed of Maximum Gust, and Total Hourly Precipitation

- Updated national and regional climate services offices contacts and prices information

- Addition of station inventory lists for 1981-2010, 1971-2000, and 1961-1990 Normals.

If you haven't already, please take our survey and provide feedback about our website: https://eccc.sondage-survey.ca/f/LanguageSelection.aspx?s=442ca660-fcf1-47c0-95a9-59707d6fd709

Hourly Data Report for October 30, 2003

TORONTO CITY
ONTARIO

43°40'00.000" N
79°24'00.000" W
112.50 m
6158355
71508
XTO

Download Data

Hourly Data (October 2003)
Hourly Data Report for October 30, 2003
TIME
LST
Temp Definition
°C
Dew Point Definition
°C
Rel Hum Definition
%
Precip. Amount Definition
mm

Wind Dir Definition
10's deg

Wind Spd Definition
km/h
Visibility Definition
km
Stn Press Definition
kPa
Hmdx Definition


Wind Chill Definition


Weather Definition


00:00 7.8 3.6 75   LegendMM LegendMM LegendMM 99.85     LegendNANA
01:00 7.7 3.7 76   LegendMM LegendMM LegendMM 99.97     LegendNANA
02:00 7.6 4.4 80   LegendMM LegendMM LegendMM 100.08     LegendNANA
03:00 7.7 3.9 77   LegendMM LegendMM LegendMM 100.14     LegendNANA
04:00 7.5 4.1 79   LegendMM LegendMM LegendMM 100.20     LegendNANA
05:00 7.1 4.0 81   LegendMM LegendMM LegendMM 100.27     LegendNANA
06:00 6.7 4.3 85   LegendMM LegendMM LegendMM 100.34     LegendNANA
07:00 6.6 4.1 84   LegendMM LegendMM LegendMM 100.38     LegendNANA
08:00 7.2 4.5 83   LegendMM LegendMM LegendMM 100.50     LegendNANA
09:00 8.2 5.1 81   LegendMM LegendMM LegendMM 100.56     LegendNANA
10:00 9.1 4.9 75   LegendMM LegendMM LegendMM 100.62     LegendNANA
11:00 10.9 4.9 66   LegendMM LegendMM LegendMM 100.65     LegendNANA
12:00 11.5 4.5 62   LegendMM LegendMM LegendMM 100.64     LegendNANA
13:00 10.8 3.8 62   LegendMM LegendMM LegendMM 100.67     LegendNANA
14:00 11.8 5.0 63   LegendMM LegendMM LegendMM 100.57     LegendNANA
15:00 11.6 5.6 67   LegendMM LegendMM LegendMM 100.55     LegendNANA
16:00 11.2 5.4 67   LegendMM LegendMM LegendMM 100.53     LegendNANA
17:00 10.5 4.9 68   LegendMM LegendMM LegendMM 100.49     LegendNANA
18:00 9.3 4.5 72   LegendMM LegendMM LegendMM 100.46     LegendNANA
19:00 9.4 4.6 72   LegendMM LegendMM LegendMM 100.44     LegendNANA
20:00 9.6 5.8 77   LegendMM LegendMM LegendMM 100.41     LegendNANA
21:00 10.0 6.4 78   LegendMM LegendMM LegendMM 100.38     LegendNANA
22:00 10.1 6.8 80   LegendMM LegendMM LegendMM 100.37     LegendNANA
23:00 10.1 7.1 82   LegendMM LegendMM LegendMM 100.36     LegendNANA

Notes on Data Quality.

Legend

  • E = Estimated
  • M = Missing
  • NA = Not Available*
  • [empty] = Indicates an unobserved value
Date modified: